Weather History for KMMK - November, 2011

Change the Weather History Date:

Friday, November 18, 2011

  Actual Average (KHVN) Record (KHVN)
Temperature  
Mean Temperature 36 °F -  
Max Temperature 46 °F 49 °F 69 °F (1987)
Min Temperature 27 °F 35 °F 24 °F (1999)
Degree Days  
Heating Degree Days 28    
Moisture  
Dew Point 22 °F    
Average Humidity 60    
Maximum Humidity 89    
Minimum Humidity 34    
Precipitation  
Precipitation 0.00 in - - ()
Sea Level Pressure  
Sea Level Pressure 30.30 in    
Wind  
Wind Speed 4 mph (WNW)    
Max Wind Speed 10 mph    
Max Gust Speed 20 mph    
Visibility 10 miles    
Events      
Averages and records for this station are not official NWS values.
T = Trace of Precipitation, MM = Missing Value Source: NWS Daily Summary

Daily Weather History Graph

Daily Weather History Graph

Search for Another Location

Airport or City:

Trip Planner

Search our weather history database for the weather conditions in past years. The results will help you decide how hot, cold, wet, or windy it might be!

Date:

Astronomy

Nov. 18, 2011 Rise Set
Actual Time 6:43 AM EST 4:29 PM EST
Civil Twilight 6:13 AM EST 4:59 PM EST
Nautical Twilight 5:39 AM EST 5:32 PM EST
Astronomical Twilight 5:06 AM EST 6:05 PM EST
Moon 11:57 PM EST (11/18) 12:19 PM EST (11/18)
Length of Visible Light 10h 45m
Length of Day
9h 45m
Waning Gibbous, 49% of the Moon is Illuminated
Nov 18
Waning Gibbous
Nov 25
New
Dec 2
First Quarter
Dec 10
Full
Dec 17
Last Quarter

Hourly Weather History & Observations

Time (EST) Temp. Windchill Dew Point Humidity Pressure Visibility Wind Dir Wind Speed Gust Speed Precip Events Conditions
12:53 AM 30.0 °F - 24.1 °F 79% 30.02 in 10.0 mi Calm Calm - N/A   Clear
1:53 AM 32.0 °F 25.6 °F 24.1 °F 73% 30.06 in 10.0 mi WNW 6.9 mph - N/A   Clear
2:53 AM 30.9 °F 27.5 °F 23.0 °F 72% 30.09 in 10.0 mi West 3.5 mph - N/A   Clear
4:53 AM 34.0 °F 29.8 °F 21.0 °F 59% 30.16 in 10.0 mi WNW 4.6 mph - N/A   Clear
5:53 AM 34.0 °F 28.8 °F 19.9 °F 56% 30.19 in 10.0 mi West 5.8 mph - N/A   Clear
7:53 AM 36.0 °F 28.5 °F 19.0 °F 50% 30.28 in 10.0 mi WNW 10.4 mph - N/A   Clear
8:53 AM 37.9 °F 32.7 °F 19.0 °F 47% 30.30 in 10.0 mi West 6.9 mph - N/A   Clear
9:53 AM 39.9 °F 33.4 °F 18.0 °F 41% 30.31 in 10.0 mi NW 10.4 mph 19.6 mph N/A   Clear
10:53 AM 42.1 °F 36.1 °F 19.0 °F 40% 30.33 in 10.0 mi WNW 10.4 mph 18.4 mph N/A   Clear
11:53 AM 44.1 °F 39.5 °F 19.0 °F 37% 30.33 in 10.0 mi WNW 8.1 mph - N/A   Scattered Clouds
12:53 PM 45.0 °F 40.6 °F 19.9 °F 37% 30.32 in 10.0 mi WNW 8.1 mph - N/A   Clear
1:53 PM 46.0 °F 41.9 °F 19.9 °F 35% 30.32 in 10.0 mi WNW 8.1 mph - N/A   Clear
2:53 PM 46.0 °F 42.5 °F 19.0 °F 34% 30.34 in 10.0 mi Variable 6.9 mph - N/A   Clear
4:53 PM 39.0 °F - 23.0 °F 53% 30.36 in 10.0 mi Calm Calm - N/A   Clear
5:53 PM 35.1 °F - 27.0 °F 72% 30.39 in 10.0 mi Calm Calm - N/A   Clear
6:53 PM 34.0 °F - 23.0 °F 64% 30.40 in 10.0 mi Calm Calm - N/A   Clear
7:53 PM 32.0 °F - 26.1 °F 79% 30.41 in 10.0 mi Calm Calm - N/A   Clear
8:53 PM 30.9 °F - 25.0 °F 79% 30.42 in 10.0 mi Calm Calm - N/A   Clear
9:53 PM 28.9 °F - 24.1 °F 82% 30.43 in 10.0 mi Calm Calm - N/A   Clear
10:53 PM 27.0 °F 23.0 °F 24.1 °F 89% 30.43 in 9.0 mi SE 3.5 mph - N/A   Clear
11:53 PM 27.0 °F - 23.0 °F 85% 30.42 in 10.0 mi Calm Calm - N/A   Clear